ICON (44628 NORAD) Tracking and Keplerian Element Data
This shows tracking and keplerian element data for the satellite.
Feedback or suggestion? Click here.
Element | Value |
Catalog | 44628 |
Name | ICON |
Epoch Orbit | 826 |
Epoch Day | 339.39856013 |
Epoch Year | 2019 |
RAAN | 225.8972 |
Inclination | 26.9913 |
Eccentricity | 0.0018941 |
Argument of Perigee | 10.9698 |
Mean Anonmoly | 349.1293 |
Mean Motion | 14.91605996 |
Decay Rate | 3.92E-06 |
L1 | 1 44628U 19068A 19339.39856013 .00000392 00000-0 18429-4 0 9990 |
L2 | 2 44628 26.9913 225.8972 0018941 10.9698 349.1293 14.91605996 8264 |
Live tracking and technical data element details for ICON (NORAD 44628). ICON can be tracked NOW for your location showing map with azimuth and elevation plus other details from your city location.
Track the satellite on the map from your city or location and see movement details for azimuth, elevation, latitude, longitude, range, height, and movement on the map or in text.
IsCatalogInMostPopularTable: catalog: 44628, numindb: 9
Update: records affected: 1
GetName: 44628 ICON
Hit Count: updated at: Thu, 05 Dec 2019 16:54:11 GMT